Powrót do katalogu

DELTA 1 DEB

LostUNKNOWN
NORAD 29062·DEBRIS·🇺🇸 United States

Wystrzelony Jul 4, 1968 z Vandenberg Space Force Base

Loading…

Następne Przeloty (najbliższe 24 godziny)

TLE

NieaktualneSource: Space-Track

Epoka: Jun 10, 2026, 22:42 UTC

1 29062U 68055V   26161.94610896  .00008006  00000-0  45610-2 0  9994
2 29062 120.5879 155.9791 1262155 150.0340 217.9297 12.23523450588202

Śledź DELTA 1 DEB w czasie rzeczywistym z AllMySat

Download on the App Store